This demonstration page uses our WeatherBlox Daily Observations layout. Learn more.

Left ArrowRight Arrow

38.83388, -104.82136

Hourly Observations for October 5, 2022

Temp ( °F °C ) Dew Point ( °F °C ) Humidity (%) Winds ( mph kmh ) Pressure ( in mb ) Visibility ( mi km ) Precip ( " mm )
12:36 am 00:36 Cloudy 50 10 45 7 82 82 Calm 29.21 989 10 16 0.00 0.00
12:56 am 00:56 Cloudy 51 10.3 45 7.4 82 82 SW 5 7 29.18 988 10 16 0.00 0.00
1:56 am 01:56 Mostly Cloudy 50 10 44 6.5 79 79 NNW 8 13 29.18 988 10 16 0.00 0.00
2:56 am 02:56 Mostly Cloudy 51 10.5 43 5.9 73 73 WNW 3 6 29.22 990 10 16 0.00 0.00
3:56 am 03:56 Cloudy 51 10.6 41 5.1 69 69 Calm 29.24 990 10 16 0.00 0.00
4:56 am 04:56 Cloudy 53 11.4 40 4.4 62 62 NW 7 11 29.24 990 10 16 0.00 0.00
5:56 am 05:56 Cloudy 52 11.1 39 4.1 62 62 NNW 7 11 29.21 989 10 16 0.00 0.00
6:56 am 06:56 Cloudy 53 11.8 38 3.6 57 57 NNW 8 13 29.27 991 10 16 0.00 0.00
7:56 am 07:56 Cloudy 51 10.6 40 4.7 67 67 NNW 7 11 29.26 991 10 16 0.00 0.00
8:56 am 08:56 Cloudy 48 9.1 43 6 81 81 N 5 7 29.26 991 10 16 0.00 0.00
9:21 am 09:21 Cloudy 48 9 43 6 81 81 Calm 29.27 991 10 16 0.00 0.00
9:56 am 09:56 Cloudy 50 10.1 44 6.6 79 79 N 6 9 29.30 992 10 16 0.00 0.00
10:36 am 10:36 Cloudy 54 12 43 6 67 67 NE 5 7 29.39 995 10 16 0.00 0.00
10:56 am 10:56 Cloudy 52 11.3 44 6.4 72 72 N 5 7 29.40 996 10 16 0.00 0.00
11:41 am 11:41 Cloudy 54 12 45 7 71 71 ENE 3 6 29.42 996 10 16 0.00 0.00
11:56 am 11:56 Cloudy 54 12.4 44 6.7 68 68 Calm 29.46 998 10 16 0.00 0.00
12:21 pm 12:21 Cloudy 54 12 45 7 71 71 ESE 8 13 29.44 997 10 16 0.00 0.00
12:26 pm 12:26 Cloudy 54 12 46 8 76 76 SE 12 19 29.42 996 10 16 0.00 0.00
12:56 pm 12:56 Cloudy 51 10.6 47 8.2 85 85 SSW 6 9 29.34 994 10 16 0.00 0.00
1:56 pm 13:56 Cloudy 56 13.6 41 5 56 56 Calm 29.51 999 10 16 0.00 0.00
2:56 pm 14:56 Sunny 58 14.4 42 5.7 56 56 ESE 5 7 29.54 1000 10 16 0.00 0.00
3:18 pm 15:18 Sunny 59 15 43 6 55 55 E 3 6 29.48 998 10 16 0.00 0.00
3:55 pm 15:55 Sunny 57 14 40 4.6 53 53 Calm 29.43 997 10 16 0.00 0.00
4:55 pm 16:55 Sunny 57 13.7 41 4.8 55 55 Calm 29.33 993 10 16 0.00 0.00
5:55 pm 17:55 Mostly Sunny 56 13.4 40 4.5 55 55 S 5 7 29.31 992 10 16 0.00 0.00
6:55 pm 18:55 Mostly Cloudy 55 12.9 42 5.3 60 60 SSW 7 11 29.31 993 10 16 0.00 0.00
7:55 pm 19:55 Partly Cloudy 55 12.8 40 4.7 58 58 Calm 29.31 992 10 16 0.00 0.00
8:55 pm 20:55 Mostly Cloudy 54 12.1 41 5 62 62 SSW 3 6 29.31 993 10 16 0.00 0.00
9:55 pm 21:55 Mostly Cloudy 53 11.4 41 5.1 65 65 Calm 29.31 993 10 16 0.00 0.00
10:55 pm 22:55 Cloudy 53 11.9 41 4.8 62 62 NNW 7 11 29.34 993 10 16 0.00 0.00
11:55 pm 23:55 Cloudy 53 11.8 41 5.2 64 64 Calm 29.35 994 10 16 0.00 0.00

Powered by AerisWeather